EWG109 EDDP-EKCH

Flight info

Callsign EWG109
Flight time 0h 49m
Altitude 36000
Route PENEM1Q/08L PENEM Y233 ODLUN Z207 MAG M736 SOGMA DCT NOBRI M726 ROSOK Q296 MONAK
Aircraft A320/M-SDE3FGHIRWY/LB1

Departure

Time 2026-05-07 19:57
Airport Leipzig/Halle Airport (EDDP)

Arrival

Time 2026-05-07 20:47
Airport Copenhagen Kastrup Airport (EKCH)
Time Latitude Longitude Altitude Speed Heading
2026-05-07 19:28 51.41927 12.21958 427 ft 0 kts 15°
2026-05-07 19:46 51.41918 12.21954 424 ft 4 kts 17°
2026-05-07 19:46 51.41892 12.21941 431 ft 4 kts 18°
2026-05-07 19:47 51.41866 12.21930 425 ft 4 kts
2026-05-07 19:47 51.41843 12.21932 429 ft 3 kts 340°
2026-05-07 19:47 51.41822 12.21953 423 ft 4 kts 301°
2026-05-07 19:47 51.41813 12.21991 424 ft 3 kts 285°
2026-05-07 19:48 51.41812 12.21998 425 ft 0 kts 285°
2026-05-07 19:50 51.41823 12.21933 427 ft 10 kts 285°
2026-05-07 19:50 51.41846 12.21796 436 ft 22 kts 285°
2026-05-07 19:50 51.41887 12.21559 437 ft 22 kts 283°
2026-05-07 19:51 51.41930 12.21304 427 ft 26 kts 285°
2026-05-07 19:51 51.41978 12.21024 427 ft 21 kts 284°
2026-05-07 19:51 51.42063 12.20923 421 ft 18 kts 13°
2026-05-07 19:51 51.42189 12.20980 426 ft 20 kts 15°
2026-05-07 19:52 51.42311 12.21032 429 ft 17 kts 15°
2026-05-07 19:52 51.42428 12.21083 422 ft 18 kts 15°
2026-05-07 19:52 51.42556 12.21140 436 ft 20 kts 15°
2026-05-07 19:52 51.42697 12.21202 436 ft 22 kts 15°
2026-05-07 19:53 51.42838 12.21263 428 ft 18 kts 15°
2026-05-07 19:53 51.42948 12.21376 426 ft 10 kts 47°
2026-05-07 19:53 51.42956 12.21390 425 ft 0 kts 47°
2026-05-07 19:55 51.42959 12.21394 425 ft 4 kts 47°
2026-05-07 19:55 51.43019 12.21493 422 ft 17 kts 45°
2026-05-07 19:55 51.43108 12.21640 424 ft 17 kts 50°
2026-05-07 19:55 51.43134 12.21800 430 ft 0 kts 86°
2026-05-07 19:56 51.43134 12.21803 431 ft 2 kts 86°
2026-05-07 19:56 51.43152 12.22163 429 ft 72 kts 85°
2026-05-07 19:56 51.43208 12.23336 442 ft 135 kts 85°
2026-05-07 19:57 51.43315 12.25078 662 ft 165 kts 83°
2026-05-07 19:57 51.43409 12.26898 1455 ft 163 kts 83°
2026-05-07 19:57 51.43714 12.28666 2056 ft 173 kts 62°
2026-05-07 19:57 51.44486 12.30280 2444 ft 195 kts 41°
2026-05-07 19:58 51.45702 12.31406 2942 ft 209 kts 19°
2026-05-07 19:58 51.47162 12.31682 3698 ft 215 kts 355°
2026-05-07 19:58 51.48598 12.30978 4619 ft 220 kts 332°
2026-05-07 19:58 51.49918 12.29716 5514 ft 222 kts 330°
2026-05-07 19:59 51.51253 12.28424 6385 ft 226 kts 330°
2026-05-07 19:59 51.52617 12.27103 7199 ft 230 kts 330°
2026-05-07 19:59 51.53995 12.25767 8038 ft 233 kts 330°
2026-05-07 19:59 51.55394 12.24408 8898 ft 236 kts 330°
2026-05-07 20:00 51.56809 12.23036 9769 ft 239 kts 331°
2026-05-07 20:00 51.58245 12.21645 10582 ft 242 kts 331°
2026-05-07 20:00 51.59692 12.20242 11409 ft 244 kts 330°
2026-05-07 20:00 51.61161 12.18813 11963 ft 249 kts 330°
2026-05-07 20:01 51.62706 12.17269 12296 ft 273 kts 329°
2026-05-07 20:01 51.64386 12.15562 12596 ft 298 kts 329°
2026-05-07 20:01 51.66202 12.13703 12877 ft 322 kts 329°
2026-05-07 20:01 51.68153 12.11705 13246 ft 340 kts 329°
2026-05-07 20:02 51.70166 12.09632 13935 ft 347 kts 327°
2026-05-07 20:02 51.72190 12.07468 14621 ft 350 kts 333°
2026-05-07 20:02 51.74397 12.05779 15304 ft 353 kts 338°
2026-05-07 20:02 51.76698 12.04330 16022 ft 356 kts 341°
2026-05-07 20:03 51.79039 12.02977 16719 ft 360 kts 341°
2026-05-07 20:03 51.81414 12.01614 17392 ft 364 kts 340°
2026-05-07 20:03 51.83804 12.00197 18064 ft 368 kts 340°
2026-05-07 20:03 51.86211 11.98712 18694 ft 372 kts 339°
2026-05-07 20:04 51.88627 11.97171 19292 ft 375 kts 338°
2026-05-07 20:04 51.91091 11.95569 19904 ft 378 kts 338°
2026-05-07 20:04 51.93537 11.93968 20506 ft 380 kts 337°
2026-05-07 20:04 51.95963 11.92376 21094 ft 383 kts 337°
2026-05-07 20:05 51.98442 11.90751 21653 ft 386 kts 337°
2026-05-07 20:05 52.00944 11.89117 22215 ft 389 kts 338°
2026-05-07 20:05 52.03466 11.87474 22766 ft 392 kts 338°
2026-05-07 20:05 52.05996 11.85829 23299 ft 395 kts 338°
2026-05-07 20:06 52.08571 11.84152 23811 ft 398 kts 338°
2026-05-07 20:06 52.11220 11.82783 24254 ft 402 kts 347°
2026-05-07 20:06 52.13994 11.82189 24692 ft 405 kts 357°
2026-05-07 20:06 52.16827 11.82401 25121 ft 409 kts
2026-05-07 20:07 52.19659 11.82909 25551 ft 412 kts
2026-05-07 20:07 52.22517 11.83407 25974 ft 414 kts
2026-05-07 20:07 52.25433 11.83908 26397 ft 417 kts
2026-05-07 20:07 52.28329 11.84402 26803 ft 420 kts
2026-05-07 20:08 52.31199 11.84893 27202 ft 422 kts
2026-05-07 20:08 52.34172 11.85404 27605 ft 425 kts
2026-05-07 20:08 52.37085 11.85903 27996 ft 428 kts
2026-05-07 20:08 52.40056 11.86418 28390 ft 430 kts
2026-05-07 20:09 52.43044 11.86943 28773 ft 433 kts
2026-05-07 20:09 52.46086 11.87476 29153 ft 436 kts
2026-05-07 20:09 52.49114 11.88005 29522 ft 439 kts
2026-05-07 20:10 52.55224 11.89076 30209 ft 444 kts
2026-05-07 20:10 52.58299 11.89611 30499 ft 446 kts
2026-05-07 20:10 52.61400 11.89980 30778 ft 448 kts 359°
2026-05-07 20:10 52.64510 11.89635 31057 ft 449 kts 351°
2026-05-07 20:11 52.67561 11.88520 31330 ft 451 kts 342°
2026-05-07 20:11 52.70565 11.86989 31608 ft 453 kts 342°
2026-05-07 20:11 52.73574 11.85461 32006 ft 452 kts 342°
2026-05-07 20:11 52.76580 11.83942 32408 ft 451 kts 342°
2026-05-07 20:12 52.79579 11.82433 32798 ft 450 kts 342°
2026-05-07 20:12 52.82572 11.80926 33191 ft 449 kts 342°
2026-05-07 20:12 52.85566 11.79412 33600 ft 449 kts 342°
2026-05-07 20:12 52.88545 11.77901 34003 ft 448 kts 342°
2026-05-07 20:13 52.91518 11.76388 34350 ft 447 kts 342°
2026-05-07 20:13 52.94498 11.74870 34643 ft 448 kts 342°
2026-05-07 20:13 52.97476 11.73352 34932 ft 448 kts 342°
2026-05-07 20:13 52.99491 11.72322 35121 ft 448 kts 342°
2026-05-07 20:14 53.02470 11.70800 35426 ft 448 kts 342°
2026-05-07 20:14 53.05450 11.69275 35705 ft 448 kts 342°
2026-05-07 20:14 53.08428 11.67747 35968 ft 449 kts 342°
2026-05-07 20:14 53.11421 11.66206 36085 ft 449 kts 342°
2026-05-07 20:15 53.14392 11.64670 36125 ft 447 kts 342°
2026-05-07 20:15 53.20335 11.61608 36122 ft 447 kts 344°
2026-05-07 20:16 53.26505 11.60573 36121 ft 448 kts
2026-05-07 20:16 53.32626 11.62830 36125 ft 449 kts 16°
2026-05-07 20:17 53.38614 11.65827 36128 ft 449 kts 16°
2026-05-07 20:17 53.44574 11.68788 36133 ft 449 kts 16°
2026-05-07 20:18 53.50609 11.71781 36137 ft 449 kts 16°
2026-05-07 20:18 53.56600 11.74770 36120 ft 449 kts 16°
2026-05-07 20:19 53.62581 11.77789 36123 ft 449 kts 16°
2026-05-07 20:19 53.68564 11.80810 36127 ft 448 kts 16°
2026-05-07 20:20 53.74543 11.83837 36124 ft 448 kts 16°
2026-05-07 20:20 53.80514 11.86879 36128 ft 448 kts 16°
2026-05-07 20:20 53.83506 11.88404 35893 ft 448 kts 16°
2026-05-07 20:21 53.86489 11.89923 35656 ft 447 kts 16°
2026-05-07 20:21 53.89469 11.91438 35406 ft 446 kts 17°
2026-05-07 20:21 53.92437 11.92949 35165 ft 445 kts 17°
2026-05-07 20:21 53.95390 11.94461 34925 ft 442 kts 17°
2026-05-07 20:22 53.98336 11.95976 34655 ft 441 kts 17°
2026-05-07 20:22 54.01285 11.97494 33730 ft 446 kts 17°
2026-05-07 20:22 54.04264 11.99023 32795 ft 448 kts 17°
2026-05-07 20:22 54.07232 12.00542 32268 ft 441 kts 17°
2026-05-07 20:23 54.10152 12.02036 31666 ft 437 kts 17°
2026-05-07 20:23 54.13047 12.03527 31065 ft 432 kts 17°
2026-05-07 20:23 54.15911 12.05012 30477 ft 428 kts 17°
2026-05-07 20:23 54.18751 12.06490 29842 ft 425 kts 17°
2026-05-07 20:24 54.21562 12.07954 29262 ft 419 kts 17°
2026-05-07 20:24 54.24335 12.09399 28700 ft 414 kts 17°
2026-05-07 20:24 54.27077 12.10825 28147 ft 409 kts 17°
2026-05-07 20:24 54.29790 12.12231 27599 ft 404 kts 17°
2026-05-07 20:25 54.32501 12.13639 27039 ft 400 kts 17°
2026-05-07 20:25 54.35148 12.15023 26528 ft 396 kts 17°
2026-05-07 20:25 54.37766 12.16395 26022 ft 391 kts 17°
2026-05-07 20:25 54.40362 12.17759 25518 ft 387 kts 17°
2026-05-07 20:26 54.42923 12.19103 25035 ft 383 kts 17°
2026-05-07 20:26 54.45459 12.20436 24560 ft 379 kts 17°
2026-05-07 20:26 54.47969 12.21753 24092 ft 375 kts 17°
2026-05-07 20:26 54.50452 12.23059 23608 ft 372 kts 17°
2026-05-07 20:27 54.52919 12.24361 23102 ft 368 kts 17°
2026-05-07 20:27 54.55352 12.25648 22670 ft 363 kts 17°
2026-05-07 20:27 54.57759 12.26914 22218 ft 359 kts 17°
2026-05-07 20:27 54.60147 12.28109 21763 ft 356 kts 12°
2026-05-07 20:28 54.62583 12.28709 21313 ft 352 kts
2026-05-07 20:28 54.65064 12.28909 20851 ft 350 kts
2026-05-07 20:28 54.67451 12.29102 20401 ft 348 kts
2026-05-07 20:28 54.69868 12.29300 19930 ft 347 kts
2026-05-07 20:29 54.72284 12.29497 19466 ft 346 kts
2026-05-07 20:29 54.74689 12.29690 19007 ft 345 kts
2026-05-07 20:29 54.77087 12.29886 18537 ft 345 kts
2026-05-07 20:29 54.79482 12.30086 18021 ft 344 kts
2026-05-07 20:30 54.81864 12.30289 17561 ft 342 kts
2026-05-07 20:30 54.84230 12.30493 17108 ft 340 kts
2026-05-07 20:30 54.86584 12.30695 16654 ft 338 kts
2026-05-07 20:30 54.88930 12.30897 16207 ft 337 kts
2026-05-07 20:31 54.91264 12.31092 15761 ft 335 kts
2026-05-07 20:31 54.93572 12.31623 15310 ft 334 kts 14°
2026-05-07 20:31 54.95752 12.32982 14863 ft 334 kts 26°
2026-05-07 20:31 54.97733 12.35071 14409 ft 333 kts 34°
2026-05-07 20:32 54.99652 12.37334 13957 ft 332 kts 34°
2026-05-07 20:32 55.01569 12.39589 13466 ft 331 kts 34°
2026-05-07 20:32 55.03475 12.41817 13010 ft 329 kts 34°
2026-05-07 20:32 55.05367 12.44020 12562 ft 326 kts 34°
2026-05-07 20:33 55.07251 12.46213 12101 ft 324 kts 34°
2026-05-07 20:33 55.09122 12.48395 11645 ft 322 kts 34°
2026-05-07 20:33 55.10984 12.50567 11191 ft 321 kts 34°
2026-05-07 20:33 55.12831 12.52727 10723 ft 319 kts 34°
2026-05-07 20:34 55.14664 12.54876 10416 ft 312 kts 35°
2026-05-07 20:34 55.16435 12.56956 10279 ft 300 kts 35°
2026-05-07 20:34 55.18138 12.58962 10151 ft 290 kts 35°
2026-05-07 20:34 55.19812 12.60939 9895 ft 284 kts 35°
2026-05-07 20:35 55.21444 12.62865 9544 ft 282 kts 35°
2026-05-07 20:35 55.23070 12.64774 9164 ft 280 kts 33°
2026-05-07 20:35 55.24763 12.66431 8853 ft 278 kts 30°
2026-05-07 20:35 55.26458 12.68057 8550 ft 277 kts 30°
2026-05-07 20:36 55.28144 12.69692 8243 ft 276 kts 30°
2026-05-07 20:36 55.29811 12.71312 7968 ft 271 kts 30°
2026-05-07 20:36 55.31426 12.72881 7742 ft 263 kts 30°
2026-05-07 20:36 55.33071 12.74221 7404 ft 260 kts 15°
2026-05-07 20:37 55.34860 12.74425 7047 ft 259 kts 352°
2026-05-07 20:37 55.36541 12.73373 6690 ft 258 kts 328°
2026-05-07 20:37 55.37858 12.71269 6337 ft 256 kts 309°
2026-05-07 20:37 55.38959 12.68826 5970 ft 254 kts 309°
2026-05-07 20:38 55.40049 12.66404 5796 ft 259 kts 309°
2026-05-07 20:38 55.41186 12.63878 5499 ft 265 kts 309°
2026-05-07 20:38 55.42133 12.61095 5066 ft 267 kts 289°
2026-05-07 20:38 55.42285 12.57862 4719 ft 267 kts 262°
2026-05-07 20:39 55.41598 12.54863 4364 ft 267 kts 234°
2026-05-07 20:39 55.40288 12.52617 4166 ft 257 kts 221°
2026-05-07 20:39 55.39126 12.50369 4028 ft 243 kts 244°
2026-05-07 20:39 55.38767 12.47586 3882 ft 231 kts 276°
2026-05-07 20:40 55.39250 12.44935 3489 ft 231 kts 307°
2026-05-07 20:40 55.40279 12.42829 3353 ft 221 kts 313°
2026-05-07 20:40 55.41322 12.40960 3291 ft 208 kts 324°
2026-05-07 20:40 55.42557 12.39784 3209 ft 198 kts 342°
2026-05-07 20:41 55.43874 12.39371 3132 ft 187 kts 359°
2026-05-07 20:41 55.45108 12.39645 3046 ft 173 kts 15°
2026-05-07 20:41 55.46163 12.40449 3010 ft 158 kts 30°
2026-05-07 20:41 55.46993 12.41571 3032 ft 142 kts 39°
2026-05-07 20:42 55.47725 12.42689 2978 ft 137 kts 39°
2026-05-07 20:42 55.48436 12.43775 2850 ft 134 kts 39°
2026-05-07 20:42 55.49139 12.44851 2693 ft 133 kts 39°
2026-05-07 20:42 55.49838 12.45921 2515 ft 133 kts 39°
2026-05-07 20:43 55.50534 12.46988 2346 ft 132 kts 39°
2026-05-07 20:43 55.51004 12.47708 2224 ft 132 kts 39°
2026-05-07 20:43 55.51698 12.48774 2047 ft 132 kts 39°
2026-05-07 20:43 55.52390 12.49837 1864 ft 132 kts 39°
2026-05-07 20:44 55.53084 12.50903 1681 ft 132 kts 39°
2026-05-07 20:44 55.53775 12.51965 1498 ft 132 kts 40°
2026-05-07 20:44 55.54467 12.53029 1318 ft 132 kts 39°
2026-05-07 20:44 55.55156 12.54089 1123 ft 132 kts 39°
2026-05-07 20:45 55.55845 12.55151 945 ft 131 kts 39°
2026-05-07 20:45 55.56536 12.56211 733 ft 131 kts 39°
2026-05-07 20:45 55.57232 12.57278 535 ft 130 kts 40°
2026-05-07 20:45 55.57914 12.58327 369 ft 129 kts 39°
2026-05-07 20:46 55.58594 12.59364 194 ft 129 kts 39°
2026-05-07 20:46 55.59258 12.60402 40 ft 125 kts 41°
2026-05-07 20:46 55.59828 12.61289 19 ft 87 kts 41°
2026-05-07 20:46 55.60186 12.61845 18 ft 53 kts 41°
2026-05-07 20:47 55.60406 12.62185 18 ft 34 kts 40°
2026-05-07 20:47 55.60594 12.62329 19 ft 29 kts 12°
2026-05-07 20:47 55.60789 12.62407 17 ft 28 kts 22°
2026-05-07 20:47 55.60902 12.62574 17 ft 21 kts 41°
2026-05-07 20:48 55.61015 12.62750 17 ft 22 kts 41°
2026-05-07 20:48 55.61133 12.62932 17 ft 23 kts 42°
2026-05-07 20:48 55.61255 12.63121 19 ft 24 kts 40°
2026-05-07 20:48 55.61380 12.63317 19 ft 24 kts 41°
2026-05-07 20:49 55.61510 12.63514 17 ft 25 kts 40°
2026-05-07 20:49 55.61641 12.63718 17 ft 25 kts 41°
2026-05-07 20:49 55.61774 12.63924 18 ft 25 kts 41°
2026-05-07 20:49 55.61914 12.64115 19 ft 26 kts 25°
2026-05-07 20:50 55.62076 12.64245 17 ft 26 kts 24°
2026-05-07 20:50 55.62232 12.64374 15 ft 19 kts 28°
2026-05-07 20:50 55.62285 12.64548 17 ft 17 kts 73°
2026-05-07 20:50 55.62367 12.64674 17 ft 17 kts
2026-05-07 20:51 55.62494 12.64659 17 ft 19 kts 351°
2026-05-07 20:51 55.62611 12.64657 17 ft 9 kts 13°
2026-05-07 20:51 55.62640 12.64597 17 ft 6 kts 283°
2026-05-07 20:51 55.62644 12.64566 17 ft 1 kts 283°
2026-05-07 20:52 55.62644 12.64565 17 ft 0 kts 283°